Thunder Bay, Ontario

11:27 PM EDT on June 24, 2017 (GMT -0400)
Thunder Bay

Weather History for CYQT - November, 2012

Change the Weather History Date:

Sunday, November 18, 2012

  Actual Average Record
Temperature  
Mean Temperature 40 °F -  
Max Temperature 48 °F -14 °F 57 °F (2015)
Min Temperature 30 °F -27 °F -2 °F (2014)
Degree Days  
Heating Degree Days 24    
Moisture  
Dew Point 37 °F    
Average Humidity 78    
Maximum Humidity 100    
Minimum Humidity 59    
Precipitation  
Precipitation 0.00 in 0.01 in - ()
Sea Level Pressure  
Sea Level Pressure 30.23 in    
Wind  
Wind Speed 5 mph ()    
Max Wind Speed 13 mph    
Max Gust Speed -    
Visibility 14.5 miles    
Events Rain    
Averages and records for this station are not official NWS values.
T = Trace of Precipitation, MM = Missing Value Source: Averaged Metar Reports

Daily Weather History Graph

Daily Weather History Graph

Search for Another Location

Airport or City:

Trip Planner

Search our weather history database for the weather conditions in past years. The results will help you decide how hot, cold, wet, or windy it might be!

Date:

Astronomy

Nov. 18, 2012 Rise Set
Actual Time 8:10 AM EST 5:14 PM EST
Civil Twilight 7:35 AM EST 5:49 PM EST
Nautical Twilight 6:57 AM EST 6:27 PM EST
Astronomical Twilight 6:20 AM EST 7:04 PM EST
Moon 12:31 PM EST (11/18) 10:41 PM EST (11/18)
Length of Visible Light 10h 13m
Length of Day
9h 04m
Waxing Crescent, 30% of the Moon is Illuminated
Nov 18
Waxing Crescent
Nov 20
First Quarter
Nov 28
Full
Dec 6
Last Quarter
Dec 13
New

Hourly Weather History & Observations

Time (EST) Temp. Windchill Dew Point Humidity Pressure Visibility Wind Dir Wind Speed Gust Speed Precip Events Conditions
12:00 AM 48.2 °F - 37.4 °F 66% 30.27 in 15.0 mi SW 8.1 mph - N/A   Mostly Cloudy
1:00 AM 43 °F - 36 °F 68% 30.27 in 10 mi East 2.3 mph - -  
1:00 AM 42.8 °F - 35.6 °F 76% 30.27 in 15.0 mi Calm Calm - N/A   Mostly Cloudy
2:00 AM 44.6 °F 43.1 °F 37.4 °F 76% 30.27 in 15.0 mi SSW 3.5 mph - N/A   Overcast
2:21 AM 44.6 °F 42.2 °F 37.4 °F 76% 30.27 in 12.0 mi South 4.6 mph - N/A Rain Light Rain
3:00 AM 42.8 °F 41.1 °F 37.4 °F 81% 30.27 in 12.0 mi South 3.5 mph - N/A   Overcast
3:27 AM 41.0 °F - 37.4 °F 87% 30.28 in 12.0 mi Calm Calm - N/A Rain Light Rain
4:00 AM 44.6 °F 41.4 °F 39.2 °F 81% 30.27 in 10.0 mi South 5.8 mph - N/A Rain Light Rain
4:38 AM 44.6 °F 42.2 °F 39.2 °F 81% 30.26 in 12.0 mi South 4.6 mph - N/A   Overcast
5:00 AM 44.6 °F 40.7 °F 39.2 °F 81% 30.27 in 15.0 mi South 6.9 mph - N/A   Overcast
6:00 AM 44.6 °F 39.2 °F 39.2 °F 81% 30.27 in 15.0 mi South 10.4 mph - N/A   Overcast
6:25 AM 44.6 °F 40.7 °F 39.2 °F 81% 30.27 in 12.0 mi SSW 6.9 mph - N/A Rain Light Rain
7:00 AM 44 °F - 40 °F 79% 30.26 in 9 mi South 6.9 mph - -   Overcast
7:00 AM 44.6 °F 40.2 °F 39.2 °F 81% 30.26 in 12.0 mi South 8.1 mph - N/A   Overcast
8:00 AM 44.6 °F 40.7 °F 37.4 °F 76% 30.26 in 12.0 mi SSW 6.9 mph - N/A   Overcast
9:00 AM 44.6 °F 40.2 °F 37.4 °F 76% 30.26 in 10.0 mi South 8.1 mph - N/A   Overcast
10:00 AM 46.4 °F 42.4 °F 37.4 °F 71% 30.26 in 15.0 mi SSW 8.1 mph - N/A   Mostly Cloudy
11:00 AM 48.2 °F - 35.6 °F 62% 30.25 in 15.0 mi SSW 6.9 mph - N/A   Mostly Cloudy
12:00 PM 46.4 °F 40.7 °F 35.6 °F 66% 30.24 in 20.0 mi South 12.7 mph - N/A   Overcast
1:00 PM 46 °F - 36 °F 59% 30.22 in 10 mi SSE 8.1 mph - -   Overcast
1:00 PM 46.4 °F 42.4 °F 35.6 °F 66% 30.22 in 10.0 mi SE 8.1 mph - N/A Rain Light Rain
1:47 PM 44.6 °F 41.4 °F 35.6 °F 71% 30.22 in 20.0 mi SSE 5.8 mph - N/A   Overcast
2:00 PM 44.6 °F 42.2 °F 35.6 °F 71% 30.22 in 20.0 mi SE 4.6 mph - N/A   Overcast
3:00 PM 44.6 °F 41.4 °F 35.6 °F 71% 30.20 in 20.0 mi ESE 5.8 mph - N/A   Overcast
4:00 PM 44.6 °F 40.2 °F 37.4 °F 76% 30.19 in 20.0 mi East 8.1 mph - N/A Rain Light Rain
4:31 PM 44.6 °F 39.7 °F 37.4 °F 76% 30.18 in 20.0 mi East 9.2 mph - N/A   Mostly Cloudy
5:00 PM 44.6 °F 40.2 °F 37.4 °F 76% 30.17 in 20.0 mi East 8.1 mph - N/A   Mostly Cloudy
6:00 PM 39.2 °F 34.2 °F 35.6 °F 87% 30.16 in 15.0 mi ENE 6.9 mph - N/A   Mostly Cloudy
7:00 PM 38 °F - 35 °F 82% 30.16 in 10 mi ENE 6.9 mph - -  
7:00 PM 39.2 °F 34.2 °F 35.6 °F 87% 30.16 in 15.0 mi ENE 6.9 mph - N/A   Clear
8:00 PM 39.2 °F 35.9 °F 35.6 °F 87% 30.16 in 15.0 mi NNE 4.6 mph - N/A   Mostly Cloudy
9:00 PM 33.8 °F - 32.0 °F 93% 30.16 in 20.0 mi Calm Calm - N/A   Mostly Cloudy
10:00 PM 33.8 °F - 32.0 °F 93% 30.16 in 15.0 mi Calm Calm - N/A   Clear
11:00 PM 30.2 °F - 30.2 °F 100% 30.16 in 15.0 mi WNW 2.3 mph - N/A   Clear